Terminal Aerodrome Forecast
Issued by NWS

Home | Current Version | Previous Version | Text Only | Print | Product List | Glossary On
Versions: 1 2 3 4 5 6 7 8 9 10 11 12 13 14 15 16 17 18 19 20 21 22 23 24
381
FTUS43 KDLH 231740
TAFHIB
TAF
KHIB 231740Z 2318/2418 21012G21KT P6SM SCT040 BKN090
     FM232000 22011G19KT P6SM VCSH SCT050 BKN100
      TEMPO 2321/2324 4SM TSRA BKN025 OVC035CB
     FM240000 23010KT P6SM VCSH SCT020 BKN050
     FM240400 VRB03KT P6SM SCT014 SCT050
     FM240700 VRB03KT 4SM BR SCT020
      TEMPO 2408/2412 1SM BR
     FM241500 16006KT P6SM BKN027=

USA.gov is the U.S. government's official web portal to all federal, state and local government web resources and services.